^^

..:: Storico WU ::..




Lo storico viene creato da WUnderground con i dati che la stazione Meteomincio invia al loro server. L' aggiornamento viene fatto ogni 5 minuti circa, tuttavia possono esserci intervalli pił ampi a causa di errori, interruzioni di servizio o problemi nell' invio tramite FTP.


Storico stazione MeteoMincio
Giorno Sommario per Febbario 08, 2022 Unità:  Inglese    Metrico   Entrambi
Giorno Settimana Mese Anno
  Max: Min: Media:
Temperatura: 59 °F 26.6 °F 39.9 °F
Dew Point: 30.2 °F 19.4 °F 24.6 °F
Umidità: 83% 23% 58%
Velocità vento: 12.4mph 0mph 4.2mph
Raffica: 18.6mph - -
Direzione- - SW
Pressione: 30.5 in 30.3 in -
Precipitazioni: 0 in    
 
 
Tabulato Dati per Febbario 08, 2022
Ora Temperatura Dew Point Pressione Direzione Velocità vento Raffica Umidità Intensità pioggia (oraria) Info solare Situazione
00:04 35.6 °F 24.8 °F 30.3 in SSW 3.1 mph 3.7 mph 64% 0 in 0.00 W/m2 unknown
00:09 35.6 °F 24.8 °F 30.3 in SSW 1.9 mph 3.1 mph 62% 0 in 0.00 W/m2 unknown
00:14 35.6 °F 24.8 °F 30.3 in SSW 3.1 mph 3.7 mph 64% 0 in 0.00 W/m2 unknown
00:19 35.6 °F 24.8 °F 30.3 in SSW 2.5 mph 3.7 mph 63% 0 in 0.00 W/m2 unknown
00:24 35.6 °F 24.8 °F 30.3 in SSW 2.5 mph 3.7 mph 64% 0 in 0.00 W/m2 unknown
00:29 35.6 °F 24.8 °F 30.3 in SSW 3.7 mph 3.7 mph 64% 0 in 0.00 W/m2 unknown
00:34 35.6 °F 24.8 °F 30.3 in SW 3.1 mph 3.7 mph 63% 0 in 0.00 W/m2 unknown
00:39 35.6 °F 24.8 °F 30.3 in SW 3.1 mph 3.7 mph 63% 0 in 0.00 W/m2 unknown
00:44 35.6 °F 24.8 °F 30.3 in West 3.1 mph 3.7 mph 64% 0 in 0.00 W/m2 unknown
00:49 35.6 °F 24.8 °F 30.3 in NW 2.5 mph 3.7 mph 64% 0 in 0.00 W/m2 unknown
00:54 35.6 °F 24.8 °F 30.3 in NW 1.9 mph 3.1 mph 66% 0 in 0.00 W/m2 unknown
00:59 33.8 °F 24.8 °F 30.3 in NW 0.6 mph 2.5 mph 68% 0 in 0.00 W/m2 unknown
01:04 33.8 °F 24.8 °F 30.3 in NW 1.9 mph 3.7 mph 69% 0 in 0.00 W/m2 unknown
01:09 33.8 °F 24.8 °F 30.3 in NW 1.9 mph 3.7 mph 71% 0 in 0.00 W/m2 unknown
01:14 32 °F 24.8 °F 30.3 in West 1.2 mph 3.1 mph 71% 0 in 0.00 W/m2 unknown
01:19 33.8 °F 24.8 °F 30.3 in West 1.2 mph 2.5 mph 70% 0 in 0.00 W/m2 unknown
01:24 33.8 °F 24.8 °F 30.3 in West 1.9 mph 2.5 mph 70% 0 in 0.00 W/m2 unknown
01:29 33.8 °F 24.8 °F 30.3 in West 1.9 mph 2.5 mph 70% 0 in 0.00 W/m2 unknown
01:34 33.8 °F 24.8 °F 30.3 in West 1.9 mph 2.5 mph 71% 0 in 0.00 W/m2 unknown
01:39 32 °F 24.8 °F 30.3 in SSE 2.5 mph 3.7 mph 72% 0 in 0.00 W/m2 unknown
01:44 32 °F 24.8 °F 30.3 in East 2.5 mph 5 mph 76% 0 in 0.00 W/m2 unknown
01:49 32 °F 24.8 °F 30.3 in East 3.1 mph 5 mph 77% 0 in 0.00 W/m2 unknown
01:54 30.2 °F 24.8 °F 30.3 in ESE 2.5 mph 5 mph 78% 0 in 0.00 W/m2 unknown
01:59 30.2 °F 24.8 °F 30.3 in SE 1.9 mph 3.1 mph 78% 0 in 0.00 W/m2 unknown
02:04 32 °F 24.8 °F 30.3 in SE 1.2 mph 2.5 mph 78% 0 in 0.00 W/m2 unknown
02:09 32 °F 24.8 °F 30.3 in Calm   1.9 mph 77% 0 in 0.00 W/m2 unknown
02:14 32 °F 24.8 °F 30.3 in Calm   1.2 mph 76% 0 in 0.00 W/m2 unknown
02:19 32 °F 24.8 °F 30.3 in SE 1.2 mph 2.5 mph 76% 0 in 0.00 W/m2 unknown
02:24 32 °F 24.8 °F 30.3 in SE 1.2 mph 1.9 mph 77% 0 in 0.00 W/m2 unknown
02:29 32 °F 24.8 °F 30.3 in SE 1.2 mph 2.5 mph 77% 0 in 0.00 W/m2 unknown
02:34 30.2 °F 24.8 °F 30.3 in West 2.5 mph 3.7 mph 76% 0 in 0.00 W/m2 unknown
02:39 30.2 °F 23 °F 30.3 in WNW 2.5 mph 3.7 mph 78% 0 in 0.00 W/m2 unknown
02:44 30.2 °F 23 °F 30.3 in WNW 1.9 mph 3.1 mph 78% 0 in 0.00 W/m2 unknown
02:49 30.2 °F 23 °F 30.3 in WNW 1.2 mph 1.9 mph 79% 0 in 0.00 W/m2 unknown
02:54 30.2 °F 23 °F 30.3 in WNW 1.2 mph 2.5 mph 79% 0 in 0.00 W/m2 unknown
02:59 30.2 °F 24.8 °F 30.3 in WNW 1.2 mph 2.5 mph 80% 0 in 0.00 W/m2 unknown
03:04 30.2 °F 24.8 °F 30.3 in WNW 1.2 mph 2.5 mph 79% 0 in 0.00 W/m2 unknown
03:09 30.2 °F 24.8 °F 30.3 in WNW 1.2 mph 2.5 mph 78% 0 in 0.00 W/m2 unknown
03:14 30.2 °F 24.8 °F 30.3 in WNW 0.6 mph 1.9 mph 78% 0 in 0.00 W/m2 unknown
03:19 30.2 °F 24.8 °F 30.3 in WSW 2.5 mph 3.1 mph 78% 0 in 0.00 W/m2 unknown
03:24 30.2 °F 24.8 °F 30.3 in SW 3.1 mph 3.7 mph 78% 0 in 0.00 W/m2 unknown
03:29 30.2 °F 26.6 °F 30.3 in SW 3.1 mph 3.7 mph 83% 0 in 0.00 W/m2 unknown
03:34 30.2 °F 23 °F 30.3 in SW 3.7 mph 3.7 mph 77% 0 in 0.00 W/m2 unknown
03:39 30.2 °F 23 °F 30.3 in WSW 3.1 mph 3.7 mph 76% 0 in 0.00 W/m2 unknown
03:44 30.2 °F 23 °F 30.3 in WSW 2.5 mph 3.7 mph 75% 0 in 0.00 W/m2 unknown
03:49 30.2 °F 23 °F 30.3 in WSW 3.1 mph 3.7 mph 75% 0 in 0.00 W/m2 unknown
03:54 30.2 °F 23 °F 30.3 in SW 4.3 mph 5 mph 76% 0 in 0.00 W/m2 unknown
03:59 30.2 °F 23 °F 30.3 in SW 5 mph 5 mph 76% 0 in 0.00 W/m2 unknown
04:04 30.2 °F 23 °F 30.3 in WSW 3.7 mph 5 mph 75% 0 in 0.00 W/m2 unknown
04:09 30.2 °F 23 °F 30.3 in West 4.3 mph 5 mph 74% 0 in 0.00 W/m2 unknown
04:14 28.4 °F 23 °F 30.3 in WSW 5 mph 5 mph 75% 0 in 0.00 W/m2 unknown
04:19 28.4 °F 23 °F 30.3 in West 4.3 mph 5 mph 75% 0 in 0.00 W/m2 unknown
04:24 28.4 °F 21.2 °F 30.3 in West 3.1 mph 5 mph 75% 0 in 0.00 W/m2 unknown
04:29 30.2 °F 21.2 °F 30.3 in West 3.1 mph 3.7 mph 74% 0 in 0.00 W/m2 unknown
04:34 30.2 °F 23 °F 30.3 in WNW 3.7 mph 5 mph 73% 0 in 0.00 W/m2 unknown
04:39 30.2 °F 21.2 °F 30.3 in WNW 3.1 mph 5 mph 72% 0 in 0.00 W/m2 unknown
04:44 30.2 °F 23 °F 30.3 in WNW 3.7 mph 5 mph 72% 0 in 0.00 W/m2 unknown
04:49 30.2 °F 23 °F 30.3 in WNW 3.7 mph 5 mph 72% 0 in 0.00 W/m2 unknown
04:54 30.2 °F 23 °F 30.3 in WNW 3.7 mph 5.6 mph 72% 0 in 0.00 W/m2 unknown
04:59 30.2 °F 21.2 °F 30.3 in WNW 3.1 mph 6.2 mph 73% 0 in 0.00 W/m2 unknown
05:04 30.2 °F 21.2 °F 30.4 in SW 3.1 mph 3.7 mph 73% 0 in 0.00 W/m2 unknown
05:09 28.4 °F 23 °F 30.4 in SSE 3.1 mph 3.7 mph 75% 0 in 0.00 W/m2 unknown
05:14 28.4 °F 23 °F 30.4 in SE 1.9 mph 3.7 mph 75% 0 in 0.00 W/m2 unknown
05:19 28.4 °F 23 °F 30.4 in SSE 2.5 mph 3.7 mph 77% 0 in 0.00 W/m2 unknown
05:24 28.4 °F 23 °F 30.4 in South 3.7 mph 3.7 mph 78% 0 in 0.00 W/m2 unknown
05:29 28.4 °F 23 °F 30.4 in South 2.5 mph 3.7 mph 77% 0 in 0.00 W/m2 unknown
05:34 28.4 °F 21.2 °F 30.4 in SSW 3.7 mph 5 mph 76% 0 in 0.00 W/m2 unknown
05:39 28.4 °F 21.2 °F 30.4 in SSW 4.3 mph 5 mph 76% 0 in 0.00 W/m2 unknown
05:44 28.4 °F 21.2 °F 30.4 in SSW 5 mph 6.2 mph 76% 0 in 0.00 W/m2 unknown
05:49 28.4 °F 21.2 °F 30.4 in SW 5 mph 6.2 mph 76% 0 in 0.00 W/m2 unknown
05:54 28.4 °F 21.2 °F 30.4 in SW 4.3 mph 6.2 mph 76% 0 in 0.00 W/m2 unknown
05:59 28.4 °F 21.2 °F 30.4 in SW 5 mph 6.2 mph 76% 0 in 0.00 W/m2 unknown
06:04 28.4 °F 21.2 °F 30.4 in WSW 5 mph 6.2 mph 77% 0 in 0.00 W/m2 unknown
06:09 28.4 °F 21.2 °F 30.4 in WSW 5 mph 6.2 mph 77% 0 in 0.00 W/m2 unknown
06:14 28.4 °F 23 °F 30.4 in West 5 mph 6.2 mph 79% 0 in 0.00 W/m2 unknown
06:19 28.4 °F 23 °F 30.4 in West 5 mph 6.2 mph 79% 0 in 0.00 W/m2 unknown
06:24 28.4 °F 21.2 °F 30.4 in West 5 mph 6.2 mph 78% 0 in 0.00 W/m2 unknown
06:29 28.4 °F 21.2 °F 30.4 in WSW 3.7 mph 6.2 mph 78% 0 in 0.00 W/m2 unknown
06:34 28.4 °F 21.2 °F 30.4 in WSW 3.1 mph 5 mph 78% 0 in 0.00 W/m2 unknown
06:39 28.4 °F 21.2 °F 30.4 in WSW 3.7 mph 5 mph 78% 0 in 0.00 W/m2 unknown
06:44 26.6 °F 21.2 °F 30.4 in WSW 4.3 mph 5 mph 79% 0 in 0.00 W/m2 unknown
06:49 26.6 °F 21.2 °F 30.4 in SW 4.3 mph 6.2 mph 79% 0 in 0.00 W/m2 unknown
06:54 28.4 °F 21.2 °F 30.4 in WSW 4.3 mph 6.2 mph 79% 0 in 0.00 W/m2 unknown
06:59 28.4 °F 21.2 °F 30.4 in WSW 3.1 mph 5 mph 78% 0 in 0.00 W/m2 unknown
07:04 28.4 °F 21.2 °F 30.4 in WSW 3.1 mph 3.7 mph 76% 0 in 0.00 W/m2 unknown
07:09 28.4 °F 21.2 °F 30.4 in WSW 2.5 mph 3.7 mph 76% 0 in 0.00 W/m2 unknown
07:14 28.4 °F 21.2 °F 30.4 in SSW 3.1 mph 3.7 mph 76% 0 in 0.00 W/m2 unknown
07:19 28.4 °F 21.2 °F 30.4 in SSW 3.1 mph 3.7 mph 76% 0 in 0.00 W/m2 unknown
07:24 28.4 °F 21.2 °F 30.4 in SW 3.1 mph 3.7 mph 76% 0 in 0.00 W/m2 unknown
07:29 28.4 °F 21.2 °F 30.4 in WSW 4.3 mph 5 mph 75% 0 in 0.00 W/m2 unknown
07:34 28.4 °F 21.2 °F 30.4 in WSW 5 mph 5 mph 76% 0 in 5.00 W/m2 unknown
07:39 28.4 °F 21.2 °F 30.4 in WSW 4.3 mph 5 mph 76% 0 in 7.00 W/m2 unknown
07:44 28.4 °F 21.2 °F 30.4 in WSW 3.7 mph 4.3 mph 76% 0 in 9.00 W/m2 unknown
07:49 28.4 °F 21.2 °F 30.4 in SW 3.1 mph 3.7 mph 76% 0 in 12.00 W/m2 unknown
07:54 28.4 °F 21.2 °F 30.4 in SW 3.7 mph 3.7 mph 76% 0 in 14.00 W/m2 unknown
07:59 28.4 °F 21.2 °F 30.4 in SW 3.1 mph 3.7 mph 75% 0 in 16.00 W/m2 unknown
08:04 30.2 °F 21.2 °F 30.4 in WSW 3.1 mph 3.7 mph 73% 0 in 19.00 W/m2 unknown
08:09 30.2 °F 21.2 °F 30.4 in WSW 3.7 mph 3.7 mph 73% 0 in 25.00 W/m2 unknown
08:14 30.2 °F 23 °F 30.4 in WSW 3.1 mph 3.7 mph 72% 0 in 53.00 W/m2 unknown
08:19 30.2 °F 23 °F 30.4 in WSW 3.7 mph 5 mph 73% 0 in 65.00 W/m2 unknown
08:24 30.2 °F 23 °F 30.4 in West 4.3 mph 6.2 mph 75% 0 in 76.00 W/m2 unknown
08:29 32 °F 23 °F 30.4 in West 4.3 mph 6.2 mph 75% 0 in 90.00 W/m2 unknown
08:34 32 °F 24.8 °F 30.4 in West 4.3 mph 6.2 mph 73% 0 in 105.00 W/m2 unknown
08:39 33.8 °F 24.8 °F 30.4 in WSW 5.6 mph 6.2 mph 72% 0 in 120.00 W/m2 unknown
08:44 33.8 °F 24.8 °F 30.4 in West 6.2 mph 6.2 mph 72% 0 in 135.00 W/m2 unknown
08:49 35.6 °F 26.6 °F 30.4 in West 5 mph 6.2 mph 71% 0 in 153.00 W/m2 unknown
08:54 35.6 °F 26.6 °F 30.4 in West 5 mph 6.8 mph 69% 0 in 169.00 W/m2 unknown
08:59 37.4 °F 26.6 °F 30.4 in WNW 5.6 mph 6.8 mph 66% 0 in 181.00 W/m2 unknown
09:04 37.4 °F 24.8 °F 30.4 in WNW 5 mph 6.8 mph 60% 0 in 197.00 W/m2 unknown
09:09 39.2 °F 26.6 °F 30.4 in WNW 6.2 mph 9.3 mph 61% 0 in 211.00 W/m2 unknown
09:14 39.2 °F 26.6 °F 30.4 in WNW 5.6 mph 8.7 mph 59% 0 in 223.00 W/m2 unknown
09:19 41 °F 26.6 °F 30.4 in WNW 5 mph 6.8 mph 57% 0 in 236.00 W/m2 unknown
09:24 41 °F 26.6 °F 30.4 in WNW 4.3 mph 6.8 mph 56% 0 in 248.00 W/m2 unknown
09:29 42.8 °F 26.6 °F 30.4 in WNW 5.6 mph 6.8 mph 56% 0 in 260.00 W/m2 unknown
09:34 42.8 °F 26.6 °F 30.4 in WNW 5 mph 6.8 mph 53% 0 in 271.00 W/m2 unknown
09:39 44.6 °F 26.6 °F 30.4 in NW 5 mph 8.1 mph 50% 0 in 281.00 W/m2 unknown
09:44 44.6 °F 26.6 °F 30.4 in WNW 6.2 mph 9.3 mph 50% 0 in 294.00 W/m2 unknown
09:49 44.6 °F 24.8 °F 30.4 in NW 6.8 mph 9.3 mph 47% 0 in 302.00 W/m2 unknown
09:54 44.6 °F 24.8 °F 30.4 in WNW 6.8 mph 9.3 mph 45% 0 in 316.00 W/m2 unknown
09:59 44.6 °F 26.6 °F 30.4 in NW 6.2 mph 8.1 mph 47% 0 in 327.00 W/m2 unknown
10:04 46.4 °F 24.8 °F 30.4 in NW 6.8 mph 8.7 mph 45% 0 in 338.00 W/m2 unknown
10:09 46.4 °F 26.6 °F 30.4 in NW 6.8 mph 9.3 mph 45% 0 in 346.00 W/m2 unknown
10:14 46.4 °F 26.6 °F 30.4 in NW 5.6 mph 8.7 mph 45% 0 in 359.00 W/m2 unknown
10:19 48.2 °F 26.6 °F 30.4 in NW 5 mph 9.9 mph 44% 0 in 367.00 W/m2 unknown
10:24 48.2 °F 26.6 °F 30.4 in WNW 7.5 mph 10.6 mph 43% 0 in 376.00 W/m2 unknown
10:29 48.2 °F 24.8 °F 30.5 in NW 7.5 mph 10.6 mph 40% 0 in 387.00 W/m2 unknown
10:34 48.2 °F 24.8 °F 30.4 in NW 7.5 mph 9.9 mph 40% 0 in 396.00 W/m2 unknown
10:39 48.2 °F 24.8 °F 30.5 in NW 6.2 mph 8.7 mph 39% 0 in 403.00 W/m2 unknown
10:44 48.2 °F 26.6 °F 30.5 in WNW 5 mph 8.1 mph 41% 0 in 411.00 W/m2 unknown
10:49 50 °F 26.6 °F 30.5 in NW 5 mph 6.8 mph 41% 0 in 417.00 W/m2 unknown
10:54 50 °F 26.6 °F 30.5 in WNW 5 mph 6.8 mph 40% 0 in 425.00 W/m2 unknown
10:59 50 °F 26.6 °F 30.5 in NW 6.2 mph 8.1 mph 40% 0 in 432.00 W/m2 unknown
11:04 50 °F 26.6 °F 30.5 in NW 6.2 mph 8.1 mph 40% 0 in 441.00 W/m2 unknown
11:09 51.8 °F 26.6 °F 30.5 in WNW 6.2 mph 8.1 mph 40% 0 in 448.00 W/m2 unknown
11:14 51.8 °F 28.4 °F 30.5 in WNW 6.2 mph 8.1 mph 40% 0 in 454.00 W/m2 unknown
11:19 51.8 °F 26.6 °F 30.5 in WNW 6.2 mph 8.1 mph 39% 0 in 459.00 W/m2 unknown
11:24 51.8 °F 26.6 °F 30.5 in WNW 6.8 mph 9.3 mph 39% 0 in 464.00 W/m2 unknown
11:29 51.8 °F 28.4 °F 30.5 in West 7.5 mph 10.6 mph 39% 0 in 469.00 W/m2 unknown
11:34 53.6 °F 28.4 °F 30.5 in WNW 6.8 mph 10.6 mph 38% 0 in 475.00 W/m2 unknown
11:39 53.6 °F 28.4 °F 30.5 in West 6.2 mph 9.9 mph 38% 0 in 480.00 W/m2 unknown
11:44 53.6 °F 26.6 °F 30.4 in West 8.7 mph 11.8 mph 37% 0 in 483.00 W/m2 unknown
11:49 53.6 °F 26.6 °F 30.4 in West 8.7 mph 11.8 mph 36% 0 in 489.00 W/m2 unknown
11:54 53.6 °F 28.4 °F 30.4 in WNW 7.5 mph 11.8 mph 39% 0 in 490.00 W/m2 unknown
11:59 53.6 °F 30.2 °F 30.4 in West 6.8 mph 9.9 mph 39% 0 in 494.00 W/m2 unknown
12:04 53.6 °F 30.2 °F 30.4 in West 8.1 mph 10.6 mph 39% 0 in 497.00 W/m2 unknown
12:09 55.4 °F 28.4 °F 30.4 in WNW 8.1 mph 10.6 mph 37% 0 in 497.00 W/m2 unknown
12:14 55.4 °F 28.4 °F 30.4 in West 8.7 mph 11.8 mph 37% 0 in 501.00 W/m2 unknown
12:19 55.4 °F 28.4 °F 30.4 in West 9.3 mph 11.8 mph 36% 0 in 504.00 W/m2 unknown
12:24 55.4 °F 28.4 °F 30.4 in WNW 9.3 mph 11.8 mph 34% 0 in 506.00 W/m2 unknown
12:29 57.2 °F 28.4 °F 30.4 in West 12.4 mph 16.2 mph 33% 0 in 510.00 W/m2 unknown
12:34 57.2 °F 28.4 °F 30.4 in West 12.4 mph 16.2 mph 33% 0 in 510.00 W/m2 unknown
12:39 57.2 °F 26.6 °F 30.4 in WNW 9.9 mph 16.2 mph 32% 0 in 510.00 W/m2 unknown
12:44 57.2 °F 26.6 °F 30.4 in West 11.8 mph 18 mph 30% 0 in 512.00 W/m2 unknown
12:49 57.2 °F 24.8 °F 30.4 in West 11.8 mph 18.6 mph 28% 0 in 512.00 W/m2 unknown
12:54 57.2 °F 24.8 °F 30.4 in West 12.4 mph 14.9 mph 28% 0 in 512.00 W/m2 unknown
12:59 57.2 °F 24.8 °F 30.4 in West 11.8 mph 14.9 mph 28% 0 in 510.00 W/m2 unknown
13:04 57.2 °F 24.8 °F 30.4 in West 8.7 mph 14.3 mph 29% 0 in 508.00 W/m2 unknown
13:09 57.2 °F 24.8 °F 30.4 in West 8.7 mph 11.8 mph 29% 0 in 506.00 W/m2 unknown
13:14 57.2 °F 24.8 °F 30.4 in West 9.3 mph 13 mph 28% 0 in 504.00 W/m2 unknown
13:19 57.2 °F 23 °F 30.4 in WSW 10.6 mph 14.3 mph 27% 0 in 503.00 W/m2 unknown
13:24 57.2 °F 23 °F 30.4 in West 9.3 mph 14.3 mph 26% 0 in 499.00 W/m2 unknown
13:29 57.2 °F 23 °F 30.4 in West 9.3 mph 14.3 mph 26% 0 in 497.00 W/m2 unknown
13:34 57.2 °F 21.2 °F 30.4 in WSW 9.9 mph 14.3 mph 24% 0 in 494.00 W/m2 unknown
13:39 57.2 °F 21.2 °F 30.4 in West 9.9 mph 14.3 mph 24% 0 in 492.00 W/m2 unknown
13:44 57.2 °F 21.2 °F 30.4 in West 10.6 mph 14.3 mph 24% 0 in 489.00 W/m2 unknown
13:49 57.2 °F 21.2 °F 30.4 in West 8.7 mph 13 mph 24% 0 in 489.00 W/m2 unknown
13:54 59 °F 23 °F 30.4 in West 8.7 mph 11.8 mph 25% 0 in 508.00 W/m2 unknown
13:59 59 °F 21.2 °F 30.4 in West 8.7 mph 13 mph 24% 0 in 501.00 W/m2 unknown
14:04 57.2 °F 21.2 °F 30.4 in West 8.1 mph 13 mph 24% 0 in 410.00 W/m2 unknown
14:09 57.2 °F 21.2 °F 30.4 in West 8.7 mph 14.9 mph 24% 0 in 325.00 W/m2 unknown
14:14 57.2 °F 21.2 °F 30.4 in West 9.9 mph 14.9 mph 24% 0 in 350.00 W/m2 unknown
14:19 57.2 °F 21.2 °F 30.4 in West 9.9 mph 14.9 mph 24% 0 in 371.00 W/m2 unknown
14:24 57.2 °F 21.2 °F 30.4 in West 9.9 mph 13 mph 25% 0 in 338.00 W/m2 unknown
14:29 57.2 °F 21.2 °F 30.4 in West 9.3 mph 11.8 mph 24% 0 in 357.00 W/m2 unknown
14:34 57.2 °F 19.4 °F 30.4 in West 8.7 mph 11.8 mph 23% 0 in 392.00 W/m2 unknown
14:39 57.2 °F 23 °F 30.4 in WSW 7.5 mph 11.8 mph 26% 0 in 355.00 W/m2 unknown
14:44 57.2 °F 23 °F 30.4 in West 6.2 mph 11.8 mph 25% 0 in 425.00 W/m2 unknown
14:49 59 °F 23 °F 30.4 in West 9.9 mph 11.8 mph 25% 0 in 427.00 W/m2 unknown
14:54 59 °F 21.2 °F 30.4 in West 8.7 mph 11.8 mph 23% 0 in 383.00 W/m2 unknown
14:59 59 °F 21.2 °F 30.4 in West 8.1 mph 11.8 mph 23% 0 in 369.00 W/m2 unknown
15:04 59 °F 21.2 °F 30.4 in West 6.8 mph 13 mph 23% 0 in 380.00 W/m2 unknown
15:09 59 °F 21.2 °F 30.4 in West 9.9 mph 11.8 mph 23% 0 in 367.00 W/m2 unknown
15:10 59 °F 21.2 °F 30.4 in WSW 6.8 mph 10.6 mph 23% 0 in 359.00 W/m2 unknown
17:31 51.8 °F 24.8 °F 30.4 in SW 3.1 mph 5 mph 35% 0 in 9.00 W/m2 unknown
18:09 50 °F 24.8 °F 30.4 in WSW 2.5 mph 3.7 mph 38% 0 in 0.00 W/m2 unknown
18:11 50 °F 24.8 °F 30.4 in West 1.9 mph 3.7 mph 38% 0 in 0.00 W/m2 unknown
18:23 48.2 °F 24.8 °F 30.4 in NW 2.5 mph 3.7 mph 42% 0 in 0.00 W/m2 unknown
18:34 46.4 °F 24.8 °F 30.4 in NW 1.9 mph 3.1 mph 43% 0 in 0.00 W/m2 unknown
18:36 46.4 °F 24.8 °F 30.4 in NW 1.9 mph 3.7 mph 43% 0 in 0.00 W/m2 unknown
18:59 44.6 °F 26.6 °F 30.4 in SE 1.9 mph 3.7 mph 50% 0 in 0.00 W/m2 unknown
19:04 44.6 °F 26.6 °F 30.4 in SE 1.9 mph 3.7 mph 50% 0 in 0.00 W/m2 unknown
19:09 42.8 °F 26.6 °F 30.4 in ESE 3.1 mph 3.7 mph 51% 0 in 0.00 W/m2 unknown
19:14 42.8 °F 26.6 °F 30.4 in ESE 3.1 mph 3.7 mph 53% 0 in 0.00 W/m2 unknown
19:19 42.8 °F 26.6 °F 30.4 in ESE 1.2 mph 2.5 mph 53% 0 in 0.00 W/m2 unknown
19:24 42.8 °F 26.6 °F 30.4 in ESE 1.2 mph 2.5 mph 53% 0 in 0.00 W/m2 unknown
19:25 42.8 °F 26.6 °F 30.4 in Calm   1.2 mph 53% 0 in 0.00 W/m2 unknown
19:39 42.8 °F 26.6 °F 30.4 in Calm     53% 0 in 0.00 W/m2 unknown
19:44 42.8 °F 26.6 °F 30.4 in Calm   1.2 mph 55% 0 in 0.00 W/m2 unknown
19:48 42.8 °F 26.6 °F 30.4 in Calm   1.2 mph 55% 0 in 0.00 W/m2 unknown
19:54 41 °F 26.6 °F 30.4 in Calm     56% 0 in 0.00 W/m2 unknown
19:59 41 °F 26.6 °F 30.4 in Calm     56% 0 in 0.00 W/m2 unknown
20:04 41 °F 26.6 °F 30.4 in Calm     55% 0 in 0.00 W/m2 unknown
20:09 41 °F 26.6 °F 30.4 in ESE 2.5 mph 3.7 mph 56% 0 in 0.00 W/m2 unknown
20:14 41 °F 26.6 °F 30.4 in ESE 2.5 mph 3.7 mph 55% 0 in 0.00 W/m2 unknown
20:19 41 °F 26.6 °F 30.4 in ESE 1.9 mph 3.1 mph 54% 0 in 0.00 W/m2 unknown
20:24 41 °F 26.6 °F 30.4 in ESE 1.2 mph 1.9 mph 55% 0 in 0.00 W/m2 unknown
20:29 41 °F 26.6 °F 30.4 in Calm   1.2 mph 55% 0 in 0.00 W/m2 unknown
20:34 41 °F 26.6 °F 30.4 in Calm     56% 0 in 0.00 W/m2 unknown
20:39 41 °F 26.6 °F 30.4 in Calm     57% 0 in 0.00 W/m2 unknown
20:44 41 °F 26.6 °F 30.4 in ESE 0.6 mph 1.2 mph 59% 0 in 0.00 W/m2 unknown
20:49 39.2 °F 26.6 °F 30.4 in ESE 1.2 mph 2.5 mph 59% 0 in 0.00 W/m2 unknown
20:54 39.2 °F 26.6 °F 30.4 in ESE 1.2 mph 2.5 mph 60% 0 in 0.00 W/m2 unknown
20:59 39.2 °F 26.6 °F 30.4 in ESE 1.2 mph 2.5 mph 61% 0 in 0.00 W/m2 unknown
21:04 39.2 °F 26.6 °F 30.4 in Calm   1.9 mph 61% 0 in 0.00 W/m2 unknown
21:09 39.2 °F 26.6 °F 30.4 in ENE 2.5 mph 3.7 mph 61% 0 in 0.00 W/m2 unknown
21:14 39.2 °F 26.6 °F 30.4 in NNE 3.7 mph 5 mph 61% 0 in 0.00 W/m2 unknown
21:19 39.2 °F 26.6 °F 30.4 in NNE 2.5 mph 5 mph 60% 0 in 0.00 W/m2 unknown
21:24 39.2 °F 26.6 °F 30.4 in NE 3.1 mph 3.7 mph 59% 0 in 0.00 W/m2 unknown
21:29 39.2 °F 26.6 °F 30.4 in NE 2.5 mph 3.7 mph 60% 0 in 0.00 W/m2 unknown
21:34 39.2 °F 26.6 °F 30.4 in NNE 3.1 mph 3.7 mph 61% 0 in 0.00 W/m2 unknown
21:39 39.2 °F 26.6 °F 30.4 in NNE 1.9 mph 3.7 mph 60% 0 in 0.00 W/m2 unknown
21:44 41 °F 26.6 °F 30.4 in NE 3.1 mph 3.7 mph 59% 0 in 0.00 W/m2 unknown
21:49 39.2 °F 26.6 °F 30.4 in NNE 3.1 mph 3.7 mph 60% 0 in 0.00 W/m2 unknown
21:54 39.2 °F 26.6 °F 30.4 in NE 2.5 mph 3.7 mph 60% 0 in 0.00 W/m2 unknown
21:59 39.2 °F 26.6 °F 30.4 in NNE 2.5 mph 3.7 mph 61% 0 in 0.00 W/m2 unknown
22:04 39.2 °F 26.6 °F 30.4 in NE 3.7 mph 5 mph 60% 0 in 0.00 W/m2 unknown
22:09 39.2 °F 26.6 °F 30.4 in NE 3.7 mph 5 mph 60% 0 in 0.00 W/m2 unknown
22:14 39.2 °F 26.6 °F 30.4 in NNE 3.1 mph 5 mph 59% 0 in 0.00 W/m2 unknown
22:19 39.2 °F 26.6 °F 30.4 in NE 3.1 mph 3.7 mph 59% 0 in 0.00 W/m2 unknown
22:24 39.2 °F 26.6 °F 30.4 in NE 3.1 mph 3.7 mph 59% 0 in 0.00 W/m2 unknown
22:29 39.2 °F 26.6 °F 30.4 in NE 1.9 mph 3.7 mph 60% 0 in 0.00 W/m2 unknown
22:34 39.2 °F 26.6 °F 30.4 in NE 1.9 mph 3.7 mph 63% 0 in 0.00 W/m2 unknown
22:39 39.2 °F 26.6 °F 30.4 in ENE 1.9 mph 3.7 mph 65% 0 in 0.00 W/m2 unknown
22:44 37.4 °F 26.6 °F 30.4 in ENE 3.1 mph 3.7 mph 66% 0 in 0.00 W/m2 unknown
22:49 37.4 °F 26.6 °F 30.4 in ENE 3.1 mph 3.7 mph 66% 0 in 0.00 W/m2 unknown
22:54 37.4 °F 26.6 °F 30.4 in ENE 3.1 mph 3.7 mph 65% 0 in 0.00 W/m2 unknown
22:59 37.4 °F 26.6 °F 30.4 in East 2.5 mph 3.7 mph 65% 0 in 0.00 W/m2 unknown
23:04 37.4 °F 26.6 °F 30.4 in ENE 1.9 mph 3.7 mph 68% 0 in 0.00 W/m2 unknown
23:09 35.6 °F 26.6 °F 30.4 in Calm   1.2 mph 69% 0 in 0.00 W/m2 unknown
23:14 35.6 °F 26.6 °F 30.4 in Calm     69% 0 in 0.00 W/m2 unknown
23:19 35.6 °F 26.6 °F 30.4 in Calm     70% 0 in 0.00 W/m2 unknown
23:24 35.6 °F 26.6 °F 30.4 in Calm     70% 0 in 0.00 W/m2 unknown
23:29 35.6 °F 26.6 °F 30.4 in Calm     70% 0 in 0.00 W/m2 unknown
23:34 35.6 °F 26.6 °F 30.4 in Calm     70% 0 in 0.00 W/m2 unknown
23:39 35.6 °F 26.6 °F 30.5 in Calm     71% 0 in 0.00 W/m2 unknown
23:44 35.6 °F 26.6 °F 30.5 in Calm     71% 0 in 0.00 W/m2 unknown
23:49 35.6 °F 26.6 °F 30.5 in Calm     70% 0 in 0.00 W/m2 unknown
23:54 35.6 °F 26.6 °F 30.5 in Calm     70% 0 in 0.00 W/m2 unknown
23:59 35.6 °F 26.6 °F 30.5 in Calm     70% 0 in 0.00 W/m2 unknown
Stazione Meteorologica MeteoMincio Rivalta s/M (MN)
Con i complimenti di Weather Underground - 4 mb



METEO PILLOLE
I venti più forti in un ciclone tropicale con persistenza di oltre 24 ore
Lungo le coste dell'Alabama e del Mississippi
Durante l'uragano Camilla, dal 17 al 18 agosto del 1969, la velocità media dei venti fu di 322 km/h con raffiche fino a 338 km/h.
Share

Non seguire questo link o sarai bannato dal sito!